| time (UTC) | temp C | wind direction | speed KPH | gust KPH | rain 1hr cm | rain 24hr cm | rain mn cm | humidity % | barometer mb |
| 20260507050034 | 5 | 314 | 12.9 | 30.6 | 0.00 | 0.99 | 0.00 | 84 | 1012.7 |
| 20260507044546 | 5 | 321 | 8.0 | 30.6 | 0.00 | 0.99 | 0.00 | 85 | 1012.6 |
| 20260507043104 | 5 | 306 | 11.3 | 32.2 | 0.00 | 0.99 | 0.00 | 85 | 1012.7 |
| 20260507041531 | 6 | 350 | 8.0 | 25.7 | 0.00 | 0.99 | 0.00 | 85 | 1012.4 |
| 20260507040041 | 6 | 315 | 9.7 | 20.9 | 0.00 | 0.99 | 0.99 | 86 | 1012.1 |
| 20260507034559 | 6 | 318 | 11.3 | 20.9 | 0.00 | 0.99 | 0.99 | 87 | 1011.5 |
| 20260507033034 | 6 | 124 | 1.6 | 9.7 | 0.00 | 0.99 | 0.99 | 86 | 1011.8 |
| 20260507031545 | 5 | 117 | 0.0 | 3.2 | 0.00 | 0.99 | 0.99 | 86 | 1011.8 |
| 20260507030001 | 5 | 165 | 1.6 | 4.8 | 0.00 | 0.99 | 0.99 | 86 | 1012.0 |
| 20260507024528 | 5 | 142 | 1.6 | 4.8 | 0.00 | 0.99 | 0.99 | 86 | 1011.9 |
| 20260507023046 | 5 | 152 | 0.0 | 4.8 | 0.00 | 0.99 | 0.99 | 86 | 1012.0 |
| 20260507021505 | 5 | 269 | 1.6 | 3.2 | 0.00 | 0.99 | 0.99 | 86 | 1011.9 |
| 20260507020105 | 5 | 161 | 0.0 | 4.8 | 0.00 | 0.99 | 0.99 | 86 | 1012.0 |
| 20260507014545 | 5 | 178 | 1.6 | 4.8 | 0.00 | 0.99 | 0.99 | 86 | 1012.2 |
| 20260507013025 | 5 | 314 | 1.6 | 3.2 | 0.00 | 0.99 | 0.99 | 86 | 1012.2 |
| 20260507011541 | 5 | 139 | 3.2 | 4.8 | 0.00 | 0.99 | 0.99 | 86 | 1012.0 |
| 20260507010002 | 5 | 117 | 1.6 | 3.2 | 0.00 | 0.99 | 0.99 | 85 | 1012.0 |
| 20260507004536 | 5 | 124 | 1.6 | 4.8 | 0.00 | 0.99 | 0.99 | 85 | 1011.7 |
| 20260507003055 | 6 | 324 | 1.6 | 8.0 | 0.00 | 0.99 | 0.99 | 85 | 1011.4 |
| 20260507001528 | 6 | 255 | 3.2 | 9.7 | 0.00 | 0.99 | 0.99 | 85 | 1011.5 |
| 20260507000050 | 6 | 314 | 1.6 | 8.0 | 0.00 | 0.99 | 0.99 | 85 | 1011.3 |
| 20260506234533 | 6 | 310 | 4.8 | 11.3 | 0.00 | 0.99 | 0.99 | 85 | 1011.2 |
| 20260506233043 | 6 | 262 | 1.6 | 9.7 | 0.00 | 0.99 | 0.99 | 85 | 1010.9 |
| 20260506231532 | 6 | 286 | 1.6 | 4.8 | 0.00 | 0.99 | 0.99 | 85 | 1010.8 |
| 20260506224543 | 6 | 295 | 3.2 | 16.1 | 0.00 | 0.99 | 0.99 | 84 | 1010.4 |
| 20260506223042 | 6 | 342 | 6.4 | 19.3 | 0.00 | 0.99 | 0.99 | 84 | 1010.3 |
| 20260506221548 | 6 | 324 | 8.0 | 17.7 | 0.00 | 0.99 | 0.99 | 85 | 1010.4 |
| 20260506220014 | 6 | 341 | 6.4 | 16.1 | 0.00 | 0.99 | 0.99 | 86 | 1010.4 |
| 20260506214531 | 6 | 231 | 4.8 | 17.7 | 0.00 | 0.99 | 0.99 | 86 | 1010.2 |
| 20260506213103 | 6 | 319 | 17.7 | 30.6 | 0.00 | 0.99 | 0.99 | 86 | 1010.1 |
| 20260506211519 | 6 | 316 | 14.5 | 27.4 | 0.00 | 0.99 | 0.99 | 86 | 1010.0 |
| 20260506210039 | 6 | 307 | 12.9 | 29.0 | 0.00 | 0.99 | 0.99 | 87 | 1009.9 |
| 20260506204559 | 6 | 323 | 12.9 | 32.2 | 0.00 | 0.99 | 0.99 | 87 | 1009.5 |
| 20260506203021 | 6 | 323 | 11.3 | 33.8 | 0.00 | 0.99 | 0.99 | 86 | 1009.1 |
| 20260506201553 | 6 | 350 | 19.3 | 33.8 | 0.03 | 0.99 | 0.99 | 86 | 1008.9 |
| 20260506200022 | 6 | 310 | 9.7 | 27.4 | 0.03 | 1.27 | 0.99 | 86 | 1008.9 |
| 20260506194619 | 7 | 300 | 6.4 | 27.4 | 0.03 | 1.27 | 0.99 | 86 | 1008.6 |
| 20260506193041 | 7 | 333 | 9.7 | 22.5 | 0.03 | 1.27 | 0.99 | 86 | 1008.4 |
| 20260506191512 | 7 | 324 | 6.4 | 14.5 | 0.03 | 1.24 | 0.97 | 86 | 1008.5 |
| 20260506190035 | 7 | 293 | 11.3 | 24.1 | 0.03 | 1.24 | 0.97 | 86 | 1008.4 |
| 20260506184608 | 7 | 309 | 16.1 | 29.0 | 0.05 | 1.24 | 0.97 | 86 | 1008.3 |
| 20260506183036 | 7 | 307 | 6.4 | 16.1 | 0.05 | 1.24 | 0.97 | 87 | 1007.9 |
| 20260506181552 | 7 | 300 | 9.7 | 17.7 | 0.03 | 1.22 | 0.94 | 86 | 1007.7 |
| 20260506180011 | 7 | 272 | 8.0 | 14.5 | 0.00 | 1.19 | 0.91 | 86 | 1007.5 |
| 20260506174539 | 7 | 269 | 6.4 | 16.1 | 0.03 | 1.19 | 0.91 | 86 | 1007.2 |
| 20260506173053 | 7 | 295 | 6.4 | 19.3 | 0.03 | 1.19 | 0.91 | 87 | 1007.1 |
| 20260506171525 | 7 | 329 | 12.9 | 22.5 | 0.03 | 1.19 | 0.91 | 87 | 1006.9 |
| 20260506170112 | 7 | 316 | 6.4 | 14.5 | 0.03 | 1.19 | 0.91 | 87 | 1007.1 |
| 20260506164540 | 7 | 281 | 6.4 | 12.9 | 0.00 | 1.17 | 0.89 | 87 | 1007.0 |
| 20260506163027 | 7 | 296 | 4.8 | 16.1 | 0.00 | 1.17 | 0.89 | 87 | 1007.0 |
| 20260506160026 | 7 | 260 | 4.8 | 11.3 | 0.03 | 1.17 | 0.89 | 87 | 1006.8 |
| 20260506154546 | 6 | 314 | 8.0 | 12.9 | 0.03 | 1.17 | 0.89 | 86 | 1006.8 |
| 20260506153013 | 7 | 306 | 3.2 | 8.0 | 0.03 | 1.17 | 0.89 | 87 | 1006.8 |
| 20260506151542 | 6 | 122 | 1.6 | 6.4 | 0.00 | 1.14 | 0.86 | 87 | 1006.8 |
| 20260506150015 | 6 | 317 | 3.2 | 8.0 | 0.03 | 1.14 | 0.86 | 87 | 1006.8 |
| 20260506144606 | 6 | 316 | 4.8 | 17.7 | 0.05 | 1.14 | 0.86 | 86 | 1006.6 |
| 20260506143035 | 6 | 320 | 4.8 | 11.3 | 0.08 | 1.14 | 0.86 | 86 | 1006.2 |
| 20260506141551 | 6 | 309 | 4.8 | 11.3 | 0.13 | 1.14 | 0.86 | 86 | 1006.3 |
| 20260506140007 | 6 | 299 | 4.8 | 9.7 | 0.13 | 1.12 | 0.84 | 86 | 1006.4 |
| 20260506134533 | 6 | 340 | 4.8 | 20.9 | 0.23 | 1.09 | 0.81 | 86 | 1006.2 |
| 20260506133052 | 7 | 276 | 4.8 | 16.1 | 0.28 | 1.07 | 0.79 | 86 | 1006.3 |
| 20260506131518 | 7 | 241 | 3.2 | 11.3 | 0.28 | 1.02 | 0.71 | 86 | 1006.4 |
| 20260506130034 | 7 | 164 | 4.8 | 17.7 | 0.30 | 0.99 | 0.71 | 86 | 1006.3 |
| 20260506124551 | 7 | 269 | 6.4 | 20.9 | 0.20 | 0.86 | 0.58 | 85 | 1007.0 |
| 20260506123018 | 8 | 331 | 14.5 | 20.9 | 0.18 | 0.79 | 0.51 | 85 | 1006.4 |
| 20260506121553 | 8 | 1 | 1.6 | 9.7 | 0.18 | 0.71 | 0.46 | 86 | 1005.9 |
| 20260506120042 | 9 | 260 | 6.4 | 14.5 | 0.18 | 0.69 | 0.41 | 86 | 1005.9 |
| 20260506114520 | 9 | 237 | 4.8 | 8.0 | 0.18 | 0.66 | 0.38 | 87 | 1005.9 |
| 20260506113047 | 8 | 172 | 1.6 | 8.0 | 0.15 | 0.61 | 0.33 | 87 | 1005.9 |
| 20260506111504 | 8 | 152 | 0.0 | 4.8 | 0.13 | 0.56 | 0.28 | 86 | 1006.1 |
| 20260506110035 | 8 | 171 | 1.6 | 6.4 | 0.10 | 0.56 | 0.23 | 86 | 1006.1 |
| 20260506104556 | 8 | 107 | 1.6 | 4.8 | 0.13 | 0.53 | 0.20 | 86 | 1006.2 |
| 20260506103029 | 8 | 178 | 1.6 | 4.8 | 0.10 | 0.51 | 0.18 | 86 | 1006.3 |
| 20260506101547 | 8 | 79 | 3.2 | 6.4 | 0.10 | 0.48 | 0.15 | 86 | 1006.2 |
| 20260506100009 | 8 | 241 | 3.2 | 6.4 | 0.08 | 0.43 | 0.13 | 86 | 1006.5 |
| 20260506094533 | 8 | 213 | 1.6 | 9.7 | 0.05 | 0.41 | 0.08 | 86 | 1006.5 |
| 20260506093056 | 8 | 6 | 9.7 | 12.9 | 0.05 | 0.38 | 0.05 | 86 | 1006.3 |
| 20260506091548 | 8 | 274 | 4.8 | 35.4 | 0.05 | 0.38 | 0.05 | 85 | 1006.8 |
| 20260506090043 | 8 | 327 | 3.2 | 8.0 | 0.03 | 0.36 | 0.03 | 86 | 1006.6 |
| 20260506084616 | 8 | 223 | 3.2 | 9.7 | 0.03 | 0.36 | 0.03 | 86 | 1006.6 |
| 20260506083024 | 8 | 238 | 3.2 | 8.0 | 0.00 | 0.33 | 0.00 | 86 | 1006.4 |
| 20260506081544 | 7 | 241 | 3.2 | 6.4 | 0.00 | 0.33 | 0.00 | 86 | 1006.4 |
| 20260506073052 | 7 | 228 | 3.2 | 6.4 | 0.00 | 0.33 | 0.00 | 85 | 1006.7 |
| 20260506071600 | 7 | 219 | 1.6 | 4.8 | 0.00 | 0.33 | 0.00 | 85 | 1006.7 |
| 20260506061558 | 7 | 223 | 3.2 | 6.4 | 0.00 | 0.33 | 0.00 | 84 | 1008.0 |